timestamp,wind_dir_avg,wind_spd_avg,wind_spd_max_dir,wind_spd_gust,battery_voltage,lat,long
2020-11-29 00:04:01+00:00,127.0,0.21,136.0,0.37,12.33,47.59359,-54.27349
2020-11-29 00:14:01+00:00,176.0,0.74,177.0,0.8,12.33,47.59359,-54.27349
2020-11-29 00:24:01+00:00,89.0,0.77,98.0,0.93,12.33,47.59359,-54.27349
2020-11-29 00:34:01+00:00,55.0,0.92,42.0,1.17,12.33,47.59359,-54.27349
2020-11-29 00:44:01+00:00,92.0,1.5,95.0,1.75,12.33,47.59359,-54.27349
2020-11-29 00:54:01+00:00,62.0,1.53,60.0,1.89,12.33,47.59359,-54.27349
2020-11-29 01:04:01+00:00,50.0,2.39,50.0,2.47,12.33,47.59359,-54.27349
2020-11-29 01:14:01+00:00,36.0,3.19,36.0,3.36,12.33,47.59359,-54.27349
2020-11-29 01:24:01+00:00,53.0,2.91,50.0,3.21,12.33,47.59359,-54.27349
2020-11-29 01:34:01+00:00,64.0,2.46,68.0,3.04,12.33,47.59359,-54.27349
2020-11-29 01:44:01+00:00,54.0,2.6,51.0,3.13,12.33,47.59359,-54.27349
2020-11-29 01:54:01+00:00,34.0,3.08,35.0,3.32,12.33,47.59359,-54.27349
2020-11-29 02:04:01+00:00,39.0,2.82,38.0,3.01,12.33,47.59359,-54.27349
2020-11-29 02:14:01+00:00,16.0,2.94,16.0,3.47,12.33,47.59359,-54.27349
2020-11-29 02:24:01+00:00,31.0,2.73,30.0,2.98,12.33,47.59359,-54.27349
2020-11-29 02:34:01+00:00,37.0,3.02,36.0,3.31,12.33,47.59359,-54.27349
2020-11-29 02:44:01+00:00,27.0,3.2,28.0,3.57,12.33,47.59359,-54.27349
2020-11-29 02:54:01+00:00,34.0,3.91,35.0,4.23,12.33,47.59359,-54.27349
2020-11-29 03:04:01+00:00,45.0,4.15,41.0,4.97,12.33,47.59359,-54.27349
2020-11-29 03:14:01+00:00,44.0,4.0,47.0,4.47,12.25,47.59359,-54.27349
2020-11-29 03:24:01+00:00,36.0,3.77,35.0,4.16,12.25,47.59359,-54.27349
2020-11-29 03:34:01+00:00,42.0,4.26,46.0,4.71,12.25,47.59359,-54.27349
2020-11-29 03:44:01+00:00,36.0,4.67,36.0,5.11,12.25,47.59359,-54.27349
2020-11-29 03:54:01+00:00,35.0,4.41,37.0,4.85,12.25,47.59359,-54.27349
2020-11-29 04:04:01+00:00,42.0,4.21,46.0,4.62,12.25,47.59359,-54.27349
2020-11-29 04:14:01+00:00,30.0,4.17,32.0,4.65,12.25,47.59359,-54.27349
2020-11-29 04:24:01+00:00,31.0,5.11,32.0,5.52,12.25,47.59359,-54.27349
2020-11-29 04:34:01+00:00,35.0,3.77,36.0,4.16,12.25,47.59359,-54.27349
2020-11-29 04:44:01+00:00,41.0,3.83,44.0,4.31,12.25,47.59359,-54.27349
2020-11-29 04:54:01+00:00,50.0,3.12,46.0,3.75,12.25,47.59359,-54.27349
2020-11-29 05:04:01+00:00,41.0,5.31,41.0,5.65,12.25,47.59359,-54.27349
2020-11-29 05:14:01+00:00,36.0,5.38,38.0,5.82,12.17,47.59359,-54.27349
2020-11-29 05:24:01+00:00,38.0,5.72,38.0,6.46,12.17,47.59359,-54.27349
2020-11-29 05:34:01+00:00,40.0,6.5,41.0,7.24,12.17,47.59359,-54.27349
2020-11-29 05:44:01+00:00,50.0,6.91,51.0,7.52,12.17,47.59359,-54.27349
2020-11-29 05:54:01+00:00,47.0,7.05,49.0,7.92,12.17,47.59359,-54.27349
2020-11-29 06:04:01+00:00,48.0,5.59,47.0,6.47,12.17,47.59359,-54.27349
2020-11-29 06:14:01+00:00,41.0,5.96,38.0,6.91,12.25,47.59359,-54.27349
2020-11-29 06:24:01+00:00,44.0,6.47,44.0,7.35,12.25,47.59359,-54.27349
2020-11-29 06:34:01+00:00,48.0,6.18,50.0,7.14,12.25,47.59359,-54.27349
2020-11-29 06:44:01+00:00,46.0,6.44,46.0,7.11,12.25,47.59359,-54.27349
2020-11-29 06:54:01+00:00,43.0,5.55,44.0,6.12,12.25,47.59359,-54.27349
2020-11-29 07:04:01+00:00,39.0,5.48,41.0,6.06,12.25,47.59359,-54.27349
2020-11-29 07:14:01+00:00,32.0,5.29,36.0,5.81,12.33,47.59359,-54.27349
2020-11-29 07:24:01+00:00,39.0,6.17,40.0,6.69,12.33,47.59359,-54.27349
2020-11-29 07:34:01+00:00,39.0,6.23,39.0,6.81,12.33,47.59359,-54.27349
2020-11-29 07:44:01+00:00,39.0,6.38,39.0,7.19,12.33,47.59359,-54.27349
2020-11-29 07:54:01+00:00,39.0,6.66,38.0,7.33,12.33,47.59359,-54.27349
2020-11-29 08:04:01+00:00,37.0,6.56,44.0,7.74,12.33,47.59359,-54.27349
2020-11-29 08:14:01+00:00,32.0,6.43,36.0,7.23,12.33,47.59359,-54.27349
2020-11-29 08:24:01+00:00,36.0,6.69,37.0,7.45,12.33,47.59359,-54.27349
2020-11-29 08:34:01+00:00,40.0,7.45,37.0,8.39,12.33,47.59359,-54.27349
2020-11-29 08:44:01+00:00,35.0,6.55,42.0,7.58,12.33,47.59359,-54.27349
2020-11-29 08:54:01+00:00,18.0,5.15,16.0,6.03,12.33,47.59359,-54.27349
2020-11-29 09:04:01+00:00,27.0,5.55,36.0,6.43,12.33,47.59359,-54.27349
2020-11-29 09:14:01+00:00,13.0,4.21,17.0,4.66,12.25,47.59359,-54.27349
2020-11-29 09:24:01+00:00,20.0,5.81,17.0,6.47,12.25,47.59359,-54.27349
2020-11-29 09:34:01+00:00,23.0,7.11,23.0,7.99,12.25,47.59359,-54.27349
2020-11-29 09:44:01+00:00,39.0,7.29,38.0,8.11,12.25,47.59359,-54.27349
2020-11-29 09:54:01+00:00,40.0,7.35,45.0,8.17,12.25,47.59359,-54.27349
2020-11-29 10:04:01+00:00,43.0,8.55,46.0,9.57,12.25,47.59359,-54.27349
2020-11-29 10:14:01+00:00,39.0,7.18,37.0,7.84,12.33,47.59359,-54.27349
2020-11-29 10:24:01+00:00,43.0,7.68,48.0,8.53,12.33,47.59359,-54.27349
2020-11-29 10:34:01+00:00,43.0,8.46,51.0,10.04,12.33,47.59359,-54.27349
2020-11-29 10:44:01+00:00,58.0,10.88,56.0,12.39,12.33,47.59359,-54.27349
2020-11-29 10:54:01+00:00,58.0,10.53,56.0,12.21,12.33,47.59359,-54.27349
2020-11-29 11:04:01+00:00,40.0,7.38,43.0,8.51,12.33,47.59359,-54.27349
2020-11-29 11:14:01+00:00,354.0,6.4,354.0,6.8,12.33,47.59359,-54.27349
2020-11-29 11:24:01+00:00,358.0,6.3,2.0,6.91,12.33,47.59359,-54.27349
2020-11-29 11:34:01+00:00,354.0,4.09,354.0,4.44,12.33,47.59359,-54.27349
2020-11-29 11:44:01+00:00,350.0,4.56,352.0,5.07,12.33,47.59359,-54.27349
2020-11-29 11:54:01+00:00,309.0,2.84,315.0,3.32,12.33,47.59359,-54.27349
2020-11-29 12:04:01+00:00,297.0,4.45,302.0,5.56,12.33,47.59359,-54.27349
2020-11-29 12:14:01+00:00,317.0,4.48,317.0,5.12,12.33,47.59359,-54.27349
2020-11-29 12:24:01+00:00,319.0,6.18,320.0,6.64,12.33,47.59359,-54.27349
2020-11-29 12:34:01+00:00,322.0,5.0,319.0,5.7,12.33,47.59359,-54.27349
2020-11-29 12:44:01+00:00,342.0,4.75,342.0,5.37,12.33,47.59359,-54.27349
2020-11-29 12:54:01+00:00,344.0,3.17,342.0,3.55,12.33,47.59359,-54.27349
2020-11-29 13:04:01+00:00,358.0,3.04,0.0,3.67,12.33,47.59359,-54.27349
2020-11-29 13:14:01+00:00,355.0,3.18,354.0,3.73,12.49,47.59359,-54.27349
2020-11-29 13:24:01+00:00,330.0,3.0,327.0,3.46,12.49,47.59359,-54.27349
2020-11-29 13:34:01+00:00,256.0,2.37,260.0,3.24,12.49,47.59359,-54.27349
2020-11-29 13:44:01+00:00,284.0,3.73,284.0,4.6,12.49,47.59359,-54.27349
2020-11-29 13:54:01+00:00,284.0,3.73,284.0,4.39,12.49,47.59359,-54.27349
2020-11-29 14:04:01+00:00,281.0,2.96,282.0,3.61,12.49,47.59359,-54.27349
2020-11-29 14:14:01+00:00,293.0,2.36,294.0,2.55,12.41,47.59359,-54.27349
2020-11-29 14:24:01+00:00,323.0,3.16,323.0,3.63,12.41,47.59359,-54.27349
2020-11-29 14:34:01+00:00,284.0,3.35,284.0,3.86,12.41,47.59359,-54.27349
2020-11-29 14:44:01+00:00,297.0,4.11,298.0,4.55,12.41,47.59359,-54.27349
2020-11-29 14:54:01+00:00,303.0,4.67,300.0,6.23,12.41,47.59359,-54.27349
2020-11-29 15:04:01+00:00,291.0,4.6,295.0,5.45,12.41,47.59359,-54.27349
2020-11-29 15:14:01+00:00,301.0,5.44,306.0,6.11,13.13,47.59359,-54.27349
2020-11-29 15:24:01+00:00,318.0,4.88,309.0,6.03,13.13,47.59359,-54.27349
2020-11-29 15:34:01+00:00,322.0,4.06,324.0,4.67,13.13,47.59359,-54.27349
2020-11-29 15:44:01+00:00,315.0,5.45,314.0,6.36,13.13,47.59359,-54.27349
2020-11-29 15:54:01+00:00,299.0,8.46,301.0,9.59,13.13,47.59359,-54.27349
2020-11-29 16:04:01+00:00,303.0,5.49,308.0,6.58,13.13,47.59359,-54.27349
2020-11-29 16:14:01+00:00,289.0,9.55,282.0,14.09,13.29,47.59359,-54.27349
2020-11-29 16:24:01+00:00,307.0,10.93,306.0,12.66,13.29,47.59359,-54.27349
2020-11-29 16:34:01+00:00,298.0,11.46,293.0,15.53,13.29,47.59359,-54.27349
2020-11-29 16:44:01+00:00,298.0,9.91,297.0,12.96,13.29,47.59359,-54.27349
2020-11-29 16:54:01+00:00,313.0,10.44,317.0,11.78,13.29,47.59359,-54.27349
2020-11-29 17:04:01+00:00,298.0,9.91,298.0,15.44,13.29,47.59359,-54.27349
2020-11-29 17:14:01+00:00,299.0,9.94,284.0,13.05,13.13,47.59359,-54.27349
2020-11-29 17:24:01+00:00,313.0,8.15,309.0,9.29,13.13,47.59359,-54.27349
2020-11-29 17:34:01+00:00,306.0,8.07,307.0,9.88,13.13,47.59359,-54.27349
2020-11-29 17:44:01+00:00,311.0,9.25,320.0,11.11,13.13,47.59359,-54.27349
2020-11-29 17:54:01+00:00,307.0,8.25,309.0,9.65,13.13,47.59359,-54.27349
2020-11-29 18:04:01+00:00,307.0,7.21,309.0,9.62,13.13,47.59359,-54.27349
2020-11-29 18:14:01+00:00,309.0,8.9,317.0,10.56,13.05,47.59359,-54.27349
2020-11-29 18:24:01+00:00,290.0,7.78,296.0,9.39,13.05,47.59359,-54.27349
2020-11-29 18:34:01+00:00,292.0,8.41,291.0,9.14,13.05,47.59359,-54.27349
2020-11-29 18:44:01+00:00,311.0,9.73,319.0,10.95,13.05,47.59359,-54.27349
2020-11-29 18:54:01+00:00,302.0,10.85,296.0,14.88,13.05,47.59359,-54.27349
2020-11-29 19:04:01+00:00,304.0,9.3,300.0,12.88,13.05,47.59359,-54.27349
2020-11-29 19:14:01+00:00,298.0,9.06,293.0,12.15,12.89,47.59359,-54.27349
2020-11-29 19:24:01+00:00,298.0,8.45,305.0,9.66,12.89,47.59359,-54.27349
2020-11-29 19:34:01+00:00,295.0,8.24,285.0,9.13,12.89,47.59359,-54.27349
2020-11-29 19:44:01+00:00,295.0,10.05,288.0,12.15,12.89,47.59359,-54.27349
2020-11-29 19:54:01+00:00,288.0,9.14,284.0,10.43,12.89,47.59359,-54.27349
2020-11-29 20:04:01+00:00,290.0,8.19,284.0,11.82,12.89,47.59359,-54.27349
2020-11-29 20:14:01+00:00,291.0,8.41,295.0,9.7,12.65,47.59359,-54.27349
2020-11-29 20:24:01+00:00,284.0,7.39,279.0,8.38,12.65,47.59359,-54.27349
2020-11-29 20:34:01+00:00,288.0,7.58,308.0,9.65,12.65,47.59359,-54.27349
2020-11-29 20:44:01+00:00,290.0,8.79,296.0,10.93,12.65,47.59359,-54.27349
2020-11-29 20:54:01+00:00,289.0,10.54,283.0,13.06,12.65,47.59359,-54.27349
2020-11-29 21:04:01+00:00,285.0,9.17,284.0,13.39,12.65,47.59359,-54.27349
2020-11-29 21:14:01+00:00,286.0,9.06,283.0,10.14,12.65,47.59359,-54.27349
2020-11-29 21:24:01+00:00,289.0,7.77,290.0,9.03,12.65,47.59359,-54.27349
2020-11-29 21:34:01+00:00,287.0,10.13,287.0,13.71,12.65,47.59359,-54.27349
2020-11-29 21:44:01+00:00,283.0,8.14,285.0,9.32,12.65,47.59359,-54.27349
2020-11-29 21:54:01+00:00,293.0,11.93,292.0,14.6,12.65,47.59359,-54.27349
2020-11-29 22:04:01+00:00,286.0,9.94,283.0,11.54,12.65,47.59359,-54.27349
2020-11-29 22:14:01+00:00,290.0,9.78,300.0,10.99,12.41,47.59359,-54.27349
2020-11-29 22:24:01+00:00,289.0,9.01,287.0,11.6,12.41,47.59359,-54.27349
2020-11-29 22:34:01+00:00,294.0,9.96,299.0,11.57,12.41,47.59359,-54.27349
2020-11-29 22:44:01+00:00,291.0,7.92,299.0,9.8,12.41,47.59359,-54.27349
2020-11-29 22:54:01+00:00,289.0,9.07,289.0,10.86,12.41,47.59359,-54.27349
2020-11-29 23:04:01+00:00,295.0,8.59,301.0,10.41,12.41,47.59359,-54.27349
2020-11-29 23:14:01+00:00,280.0,7.18,282.0,8.46,12.49,47.59359,-54.27349
2020-11-29 23:24:01+00:00,285.0,8.92,290.0,10.04,12.49,47.59359,-54.27349
2020-11-29 23:34:01+00:00,274.0,9.87,276.0,11.27,12.49,47.59359,-54.27349
2020-11-29 23:44:01+00:00,276.0,9.87,272.0,14.14,12.49,47.59359,-54.27349
2020-11-29 23:54:01+00:00,279.0,11.09,281.0,14.17,12.49,47.59359,-54.27349
